Location: �perlecques
(50.8057°N, 2.1521°E)
Time: 07:45:41
(UTC+00:00)

Courier 1B - Pass Details

Date: 03 August 2021
Orbit: 963 x 1209 km, 28.3° (Epoch: 25 September)

Event Time Altitude Azimuth Distance (km) Brightness Sun altitude
Rises 20:39:27 0° 236° (SW) 4,103 10.9 -9.3°
Reaches altitude 10° 20:44:57 10° 205° (SSW) 3,113 9.9 -9.9°
Maximum altitude 20:47:05 11° 189° (S) 2,999 9.7 -10.2°
Drops below altitude 10° 20:49:13 10° 172° (S) 3,080 9.6 -10.4°
Enters shadow 20:50:30 - 163° (SSE) 3,218 9.7 -10.6°
